Regional Weather Roundup
Issued by NWS

Home | Current Version | Previous Version | Graphics & Text | Print | Product List | Glossary On
Versions: 1 2 3 4 5 6 7 8 9 10 11 12 13 14 15 16 17 18 19 20 21 22 23 24 25 26 27 28 29 30 31 32 33 34 35 36 37 38 39 40 41 42 43 44 45 46 47 48 49 50
000
ASUS43 KFSD 220110
RWRSD

WEATHER ROUNDUP FOR SOUTH DAKOTA
NATIONAL WEATHER SERVICE SIOUX FALLS SD
700 PM CST TUE NOV 21 2017

NOTE: "FAIR" INDICATES FEW OR NO CLOUDS BELOW 12,000 FEET WITH NO
SIGNIFICANT WEATHER AND/OR OBSTRUCTIONS TO VISIBILITY.


SDZ001>005-009-010-012>017-220200-
NORTHWEST AND NORTH CENTRAL SOUTH DAKOTA

CITY           SKY/WX    TMP DP  RH WIND       PRES   REMARKS
BUFFALO          N/A     26  10  50 SE6       30.16F WCI  19
FAITH            N/A     20   3  48 SE6       30.26F WCI  12
MOBRIDGE       CLOUDY    12   2  64 N7        30.31F WCI   1
$$

SDZ012>016-024>037-041>051-057-063-072>074-220200-
SOUTHWEST AND SOUTH CENTRAL SOUTH DAKOTA

CITY           SKY/WX    TMP DP  RH WIND       PRES   REMARKS
RAPID CTY ARPT CLOUDY    23  17  78 S6        30.25F WCI  16
PIERRE         CLOUDY    17   5  59 CALM      30.35S
CUSTER         CLOUDY    29  21  72 W7        30.18F WCI  22
ELLSWORTH AFB  CLOUDY    25  20  82 SE6       30.23F WCI  18
PHILIP         CLOUDY    19  12  74 CALM      30.32F
PINE RIDGE     CLEAR     25  20  81 NE8       30.27S WCI  16
SPEARFISH      FAIR      23  21  93 SE6       30.19F WCI  16
WINNER         FAIR      16   9  74 SW8       30.36S WCI   5
$$

SDZ004>011-016>023-039-040-220200-
NORTHEAST SOUTH DAKOTA

CITY           SKY/WX    TMP DP  RH WIND       PRES   REMARKS
ABERDEEN       CLOUDY    15   6  67 N6        30.39R WCI   6
WATERTOWN      PTCLDY    17   8  67 NW8       30.33R WCI   7
BROOKINGS      CLOUDY    16   8  71 NW8       30.35R WCI   5
SISSETON         N/A     15   7  70 NW9       30.36R WCI   3
$$

SDZ017-020-022-023-036>040-048>070-220200-
SOUTHEAST SOUTH DAKOTA

CITY           SKY/WX    TMP DP  RH WIND       PRES   REMARKS
SIOUX FALLS    CLOUDY    20   8  60 NW10      30.37R WCI   9
HURON          CLOUDY    12   6  77 NW6       30.39S WCI   3
CHAMBERLAIN    CLOUDY    22  12  64 NW3       30.36F
MITCHELL       CLOUDY    19   7  59 NW3       30.40S
YANKTON        CLOUDY    17   8  67 NW6       30.40R WCI   9
$$

ABBREVIATIONS USED IN REMARKS
   TC - TEMPERATURE IN CELSIUS
  WCI - WIND CHILL INDEX
   HX - HEAT INDEX
  VSB - VISIBILITY





USA.gov is the U.S. government's official web portal to all federal, state and local government web resources and services.